EHI
3 5 14 33 60 81 91 96 98 98 98 97 94 83 63 42 26 17 13 13 14 15 13 9 5 2 1 1 1 0 0 0 0 0 0 0 0 0 0 0 0 0 0
7 8 15 31 52 73 85 92 97 98 97 93 85 68 44 25 13 8 6 6 7 8 7 5 3 1 1 1 0 0 0 0 0 0 0 0 0 0 0 0 0 0 0
14 12 16 28 43 59 75 86 93 94 92 85 70 47 25 10 3 1 1 0 1 2 1 1 1 0 0 0 0 0 0 0 0 0 0 0 0 0 0 0 0 0 0
26 23 25 33 45 57 70 83 89 87 84 75 57 36 19 7 2 0 0 0 0 0 0 0 0 0 0 0 0 0 0 0 0 0 0 0 0 0 0 0 0 0 0
45 43 44 52 62 69 75 81 82 78 72 59 42 26 13 5 2 0 0 0 0 0 0 0 0 0 0 0 0 0 0 0 0 0 0 0 0 0 0 0 0 0 0
49 50 54 62 71 74 72 70 66 58 48 35 22 11 5 2 1 0 0 0 0 0 0 0 0 0 0 0 0 0 0 0 0 0 0 0 0 0 0 0 0 0 0
36 38 43 49 54 55 52 49 40 28 19 13 7 3 1 1 0 0 0 0 0 0 0 0 0 0 0 0 0 0 0 0 0 0 0 0 0 0 0 0 0 0 0
21 22 23 25 26 26 25 22 15 8 3 2 2 1 0 0 0 0 0 0 0 0 0 0 0 0 0 0 0 0 0 0 0 0 0 0 0 0 0 0 0 0 0
9 9 9 9 8 7 7 5 3 1 0 1 1 0 0 0 0 0 0 0 0 0 0 0 0 0 0 0 0 0 0 0 0 0 0 0 0 0 0 0 0 0 0
2 1 1 1 1 1 1 0 0 0 0 0 0 0 0 0 0 0 0 0 0 0 0 0 0 0 0 0 0 0 0 0 0 0 0 0 0 0 0 0 0 0 0
0 0 0 0 0 0 0 0 0 0 0 0 0 0 0 0 0 0 0 0 0 0 0 0 0 0 0 0 0 0 0 0 0 0 0 0 0 0 0 0 0 0 0
0 0 0 0 0 0 0 0 0 0 0 0 0 0 0 0 0 0 0 0 0 0 0 0 0 0 0 0 0 0 0 0 0 0 0 0 0 0 0 0 0 0 0
0 0 0 0 0 0 0 0 0 0 0 0 0 0 0 0 0 0 0 0 0 0 0 0 0 0 0 0 0 0 0 0 0 0 0 0 0 0 0 0 0 0 0
0 0 0 0 0 0 0 0 0 0 0 0 0 0 0 0 0 0 0 0 0 0 0 0 0 0 0 0 0 0 0 0 0 0 0 0 0 0 0 0 0 0 0
0 0 0 0 0 0 0 0 0 0 0 0 0 0 0 0 0 0 0 0 0 0 0 0 0 0 0 0 0 0 0 0 0 0 0 0 0 0 0 0 0 0 0
0 0 0 0 0 0 0 0 0 0 0 0 0 0 0 0 0 0 0 0 0 0 0 0 0 0 0 0 0 0 0 0 0 0 0 0 0 0 0 0 0 0 0
0 0 0 0 0 0 0 0 0 0 0 0 0 0 0 0 0 0 0 0 0 0 0 0 0 0 0 0 0 0 0 0 0 0 0 0 0 0 0 0 0 0 0
0 0 0 0 0 0 0 0 0 0 0 0 0 0 0 0 0 0 0 0 0 0 0 0 0 0 0 0 0 0 0 0 0 0 0 0 0 0 0 0 0 0 0
0 0 0 0 0 0 0 0 0 0 0 0 0 0 0 0 0 0 0 0 0 0 0 0 0 0 0 0 0 0 0 0 0 0 0 0 0 0 0 0 0 0 0
0 0 0 0 0 0 0 0 0 0 0 0 0 0 0 0 0 0 0 0 0 0 0 0 0 0 0 0 0 0 0 0 0 0 0 0 0 0 0 0 0 0 0
0 0 0 0 0 0 0 0 0 0 0 0 0 0 0 0 0 0 0 0 0 0 0 0 0 0 0 0 0 0 0 0 0 0 0 0 0 0 0 0 0 0 0
0 0 0 0 0 0 0 0 0 0 0 0 0 0 0 0 0 0 0 0 0 0 0 0 0 0 0 0 0 0 0 0 0 0 0 0 0 0 0 0 0 0 0
0 0 0 0 0 0 0 0 0 0 0 0 0 0 0 0 0 0 0 0 0 0 0 0 0 0 0 0 0 0 0 0 0 0 0 0 0 0 0 0 0 0 0
0 0 0 0 0 0 0 0 0 0 0 0 0 0 0 0 0 0 0 0 0 0 0 0 0 0 0 0 0 0 0 0 0 0 0 0 0 0 0 0 0 0 0
0 0 0 0 0 0 0 0 0 0 0 0 0 0 0 0 0 0 0 0 0 0 0 0 0 0 0 0 0 0 0 0 0 0 0 0 0 0 0 0 0 0 0
0 0 0 0 0 0 0 0 0 0 0 0 0 0 0 0 0 0 0 0 0 0 0 0 0 0 0 0 0 0 0 0 0 0 0 0 0 0 0 0 0 0 0
Wind_Speed
10 11 13 15 15 14 15 15 15 14 12 9 9 7 5 5 5 5 5 4 2 3 3 4 5 4 4 5 5 4 3 2 0 2 3 2 2 2 2 3 2 1 1
7 7 10 13 15 15 15 14 14 14 13 9 7 5 7 6 5 4 5 4 3 3 3 5 5 4 4 5 4 3 2 2 0 2 4 4 5 5 4 3 4 3 3
9 7 7 10 12 14 14 12 13 12 12 11 9 9 6 5 4 4 4 4 4 3 4 4 5 4 4 4 3 3 2 2 2 1 3 5 5 2 5 5 5 5 5
8 7 4 4 8 9 10 11 11 11 11 12 11 11 8 6 5 5 5 6 6 6 5 5 6 5 4 5 4 3 2 2 3 3 1 3 5 6 4 5 6 7 7
10 9 7 5 3 4 6 8 10 10 11 11 12 11 8 7 6 7 8 8 7 8 7 6 6 6 5 5 5 4 3 1 0 1 1 1 2 5 6 7 5 6 7
10 10 10 10 9 8 8 9 11 11 11 11 10 10 11 11 10 10 9 8 7 7 8 7 6 6 6 6 5 5 4 3 3 2 2 3 4 5 6 8 9 9 8
10 11 12 12 11 11 10 11 12 12 10 10 9 10 11 11 10 10 10 9 7 6 7 6 6 5 6 6 5 4 4 3 1 2 3 4 5 6 7 9 10 11 10
11 12 12 12 12 12 12 12 13 12 11 11 10 10 10 8 8 10 10 9 8 7 7 7 6 6 5 5 4 3 3 1 1 2 4 5 6 6 7 9 10 12 11
11 12 12 12 12 13 12 12 13 12 12 12 12 12 11 11 12 12 11 9 8 8 8 7 6 6 5 4 3 2 1 0 2 3 4 6 6 6 7 8 9 11 13
11 11 11 12 12 12 12 13 13 13 12 12 11 11 12 13 13 12 12 10 9 8 8 7 6 6 5 4 1 2 2 2 2 4 5 6 7 7 7 8 8 9 11
10 10 10 11 11 12 13 13 13 13 13 13 13 14 13 13 13 12 11 10 9 8 8 7 6 5 4 3 2 3 2 3 4 5 6 7 7 7 8 8 8 9 10
10 10 10 11 11 12 12 13 13 13 13 13 13 14 13 13 12 12 11 10 9 8 7 6 5 4 4 2 2 2 3 4 5 6 7 8 7 9 9 8 9 9 10
10 10 10 11 11 12 12 12 13 13 13 13 14 14 13 13 12 11 10 9 8 7 6 5 4 3 2 2 2 3 4 5 6 7 8 9 9 10 9 10 10 9 9
9 10 10 10 11 11 11 12 12 12 12 13 13 13 13 12 11 11 9 8 7 6 5 4 3 2 1 2 3 5 5 6 7 8 8 9 9 10 11 10 10 10 11
10 10 10 10 10 10 11 11 11 11 12 12 13 12 12 11 10 9 8 7 5 4 3 3 2 2 2 6 8 7 7 7 8 9 8 8 9 10 10 10 12 12 11
10 10 10 10 9 9 10 10 10 10 11 12 11 11 10 9 8 7 6 5 4 3 3 3 3 3 6 8 8 10 10 9 9 9 9 9 9 8 10 13 14 16 15
11 10 9 9 9 9 9 10 10 10 11 11 10 9 8 8 6 6 5 4 3 3 3 3 4 4 8 6 7 9 11 10 8 9 9 8 8 10 9 12 16 16 16
10 10 9 9 9 9 9 9 10 10 10 9 8 8 7 6 5 5 5 4 3 3 3 3 4 3 6 5 6 12 11 8 8 9 9 10 10 8 11 14 15 14 13
10 9 9 10 10 9 9 10 9 9 9 8 7 6 6 6 5 5 4 3 3 3 3 3 4 3 4 5 6 12 10 7 9 10 10 10 10 8 11 14 14 14 13
10 10 10 10 10 9 8 9 9 9 8 7 6 6 6 5 5 5 4 4 2 3 3 3 3 4 3 4 4 10 8 8 8 8 9 7 6 11 13 13 12 13 12
10 10 10 9 9 8 8 9 8 8 7 7 7 6 6 5 5 4 3 2 2 3 3 3 2 2 3 1 1 7 8 9 9 8 7 6 8 13 15 14 10 11 14
11 10 10 9 8 7 7 8 7 7 7 7 7 6 5 4 4 3 2 2 2 1 2 3 3 3 2 3 3 6 8 10 11 8 8 8 12 16 17 12 10 14 14
10 9 10 9 7 6 6 7 7 6 6 6 5 5 5 4 2 1 1 1 2 3 3 4 4 4 5 3 2 7 10 10 10 8 10 12 15 15 11 7 12 12 8
10 9 9 9 7 6 6 5 5 4 5 5 4 4 3 3 2 1 2 3 4 4 4 5 5 6 5 6 8 8 8 8 8 9 9 10 10 9 8 9 8 7 7
8 8 8 8 8 7 6 5 4 3 3 4 3 2 2 1 0 0 2 4 5 6 6 7 7 7 7 8 10 9 9 9 9 12 8 7 8 8 9 9 9 8 8
8 8 8 8 7 7 7 6 5 3 2 2 2 1 0 0 2 2 1 4 2 4 1 2 6 6 6 9 10 10 11 12 12 10 6 7 7 8 8 9 9 9 8
Wind_Direction
247 231 219 215 207 200 198 198 198 189 186 183 179 174 155 110 83 69 66 71 87 110 124 126 129 133 128 122 118 112 117 113 116 239 231 216 239 260 235 251 256 180 257
278 256 232 216 210 205 201 197 196 189 185 175 162 141 118 102 96 95 86 86 103 122 132 145 139 135 127 127 131 139 168 114 38 285 275 250 209 206 218 225 230 256 267
312 295 255 227 214 206 202 199 192 182 178 155 130 119 111 110 114 106 104 101 102 108 119 129 123 124 121 119 120 135 147 148 135 324 288 284 287 217 188 221 241 248 276
343 335 309 235 213 206 193 188 178 170 159 145 144 147 147 143 149 147 138 129 121 108 101 106 107 107 107 111 114 97 122 161 158 139 8 331 339 303 279 210 221 236 257
10 21 25 38 82 130 148 151 144 137 135 137 143 142 140 134 132 133 130 118 105 96 93 93 98 99 98 97 95 99 94 122 93 140 186 222 239 261 282 293 288 266 261
34 45 52 60 70 81 98 111 116 114 118 125 130 134 134 134 139 136 128 114 104 98 100 102 103 104 106 106 105 108 97 67 51 358 318 296 297 297 298 292 288 287 286
47 53 58 63 70 78 86 95 100 100 103 108 112 119 126 133 135 129 124 117 111 108 107 109 108 107 105 105 105 99 89 94 84 309 310 307 301 303 299 295 296 297 293
54 55 58 62 68 72 77 85 91 91 93 95 97 102 109 112 114 116 118 114 112 111 111 107 106 105 109 109 108 117 116 103 278 297 311 298 294 306 301 300 302 297 294
59 58 58 59 63 67 72 81 88 89 90 94 96 97 100 105 110 112 110 107 109 112 109 108 107 102 99 102 121 104 107 157 294 305 304 304 311 299 301 298 295 296 297
62 58 58 60 63 68 73 78 83 87 91 93 95 99 102 105 108 108 104 105 106 107 110 107 105 106 111 122 145 134 69 334 339 331 327 315 311 317 299 293 293 290 291
71 66 65 66 70 74 77 80 84 87 89 92 96 100 102 103 103 102 103 104 105 108 109 111 115 116 111 94 60 29 5 333 334 324 321 315 316 307 309 299 293 292 294
81 77 77 78 78 79 81 84 88 91 94 97 99 100 102 103 102 103 104 106 105 105 106 107 103 98 88 65 26 2 348 334 330 326 320 315 313 309 297 301 301 298 297
90 87 83 81 82 84 86 89 90 94 100 103 103 103 104 102 102 102 102 100 100 98 96 99 100 92 79 57 5 343 333 328 324 321 317 314 311 305 307 305 299 298 296
101 96 91 88 87 88 89 91 93 97 100 101 102 101 99 99 100 99 97 94 94 94 91 86 78 64 28 357 349 336 329 323 319 315 309 305 307 309 311 304 302 302 302
108 103 100 97 96 94 93 93 94 96 100 101 100 99 98 97 96 92 88 86 86 90 84 74 65 18 13 26 0 336 324 323 316 311 307 305 307 297 297 304 310 309 303
113 111 109 106 102 100 99 99 97 97 100 99 99 100 99 96 94 94 95 95 92 78 63 42 24 21 48 51 16 339 325 317 311 312 311 306 291 298 291 284 291 296 294
120 118 114 110 107 105 106 106 106 106 104 103 105 106 107 107 110 114 110 101 88 73 54 32 28 55 82 52 8 343 313 308 314 312 310 310 317 310 314 314 305 294 286
112 114 114 110 108 108 108 109 110 110 111 111 111 112 117 121 121 114 100 90 71 51 39 26 23 31 89 57 356 329 300 307 314 311 309 311 313 331 336 318 306 302 300
104 109 113 115 112 112 116 116 117 116 115 114 117 125 128 121 116 101 87 67 48 36 15 30 8 360 89 70 358 328 314 318 317 314 314 313 314 346 329 312 304 302 302
102 109 113 114 113 116 122 122 121 120 120 124 127 127 114 101 93 81 66 61 42 27 359 33 4 349 17 84 357 328 319 323 316 311 307 302 322 325 314 311 304 302 310
106 110 111 108 111 121 125 122 123 123 127 128 122 113 104 96 88 81 68 48 28 31 9 9 354 357 359 92 82 327 325 329 317 312 312 327 345 320 310 304 298 302 304
108 108 106 106 112 122 125 122 121 127 130 127 118 110 102 93 98 97 81 44 357 355 10 358 345 357 358 349 356 309 302 304 310 313 321 332 327 312 303 301 304 300 296
110 113 113 113 118 124 125 121 124 130 132 127 116 111 108 102 100 91 73 20 351 350 358 356 351 353 350 352 292 292 293 289 300 315 316 306 300 300 300 303 302 300 310
118 120 118 114 111 111 107 107 116 127 133 129 125 133 138 146 137 316 355 1 3 360 356 358 354 350 349 357 351 339 329 324 318 325 315 301 292 301 320 319 321 330 341
121 118 113 110 108 105 97 94 100 118 129 131 140 165 157 108 218 329 20 357 32 27 349 354 353 351 347 358 338 323 329 332 331 323 317 337 344 345 341 339 340 341 345
124 118 110 105 102 99 90 81 79 87 113 141 166 203 243 315 305 326 144 135 48 121 163 316 331 349 359 331 322 319 316 311 308 312 336 344 341 337 335 335 336 339 343